This is the latest recevied weather packets stored in our database for station/object DC7RY. If no packets are shown the sender has not sent any weather packets the latest 1 day(s).
| Time | Temp. | Humidity | Pressure | Rain* | Wind** | Luminosity | Snow |
|---|---|---|---|---|---|---|---|
| 1778005221 | 12.78° C | 99% | 1000.6 hPa | 6.86 mm | 0.45 m/s, 103° | 0 W/m² | - |
| 1778003423 | 13.33° C | 99% | 1001 hPa | 4.83 mm | 0.45 m/s, 273° | 0 W/m² | - |
| 1778002822 | 13.33° C | 98% | 1000.8 hPa | 3.3 mm | 0.45 m/s, 273° | 0 W/m² | - |
| 1778002228 | 14.44° C | 97% | 1000.8 hPa | 2.29 mm | 2.24 m/s, 277° | 0 W/m² | - |
| 1778001620 | 15.56° C | 95% | 1000.8 hPa | 1.02 mm | 4.02 m/s, 275° | 0 W/m² | - |
| 1778001026 | 16.67° C | 92% | 1000.2 hPa | 0.76 mm | 2.24 m/s, 271° | 0 W/m² | - |
| 1778000416 | 17.22° C | 86% | 1000.2 hPa | 0.25 mm | 1.34 m/s, 271° | 3 W/m² | - |
| 1777999822 | 17.22° C | 80% | 999.9 hPa | 0 mm | 0.45 m/s, 289° | 8 W/m² | - |
| 1777999229 | 17.22° C | 78% | 999.9 hPa | 0 mm | 0.89 m/s, 95° | 27 W/m² | - |
| 1777998621 | 17.22° C | 78% | 1000 hPa | 0 mm | 0.89 m/s, 89° | 31 W/m² | - |
| 1777998029 | 17.22° C | 79% | 999.9 hPa | 0 mm | 0.45 m/s, 90° | 28 W/m² | - |
| 1777997419 | 17.22° C | 81% | 1000.2 hPa | 0 mm | 0 m/s | 26 W/m² | - |
| 1777996825 | 17.78° C | 80% | 1000.3 hPa | 0 mm | 0 m/s | 12 W/m² | - |
| 1777996217 | 17.78° C | 78% | 1000.3 hPa | 0 mm | 0.45 m/s, 274° | 19 W/m² | - |
| 1777995031 | 18.33° C | 70% | 1000.3 hPa | 0 mm | 0.45 m/s, 93° | 21 W/m² | - |
| 1777994422 | 18.89° C | 69% | 1000.4 hPa | 0 mm | 0.45 m/s, 96° | 22 W/m² | - |
| 1777993825 | 18.89° C | 68% | 1000.3 hPa | 0 mm | 0 m/s | 38 W/m² | - |
| 1777993230 | 19.44° C | 67% | 1000.4 hPa | 0 mm | 0.89 m/s, 94° | 38 W/m² | - |
| 1777992621 | 20° C | 65% | 1000.6 hPa | 0 mm | 1.34 m/s, 91° | 45 W/m² | - |
| 1777992029 | 20.56° C | 63% | 1000.7 hPa | 0 mm | 0.45 m/s, 100° | 46 W/m² | - |
| 1777991419 | 21.11° C | 58% | 1000.8 hPa | 0 mm | 0.45 m/s, 98° | 48 W/m² | - |
| 1777990827 | 21.67° C | 56% | 1001 hPa | 0 mm | 0.89 m/s, 92° | 81 W/m² | - |
| 1777990219 | 22.22° C | 56% | 1001.2 hPa | 0 mm | 1.34 m/s, 92° | 112 W/m² | - |
| 1777989626 | 22.78° C | 55% | 1001.3 hPa | 0 mm | 1.79 m/s, 91° | 209 W/m² | - |
| 1777989018 | 22.78° C | 54% | 1001.4 hPa | 0 mm | 0.45 m/s, 100° | 206 W/m² | - |
* Rain latest hour (hover to see other rain measurements)
** Current wind speed in m/s (hover to see current wind gust speed)